Flag for West Bank Weather past 2 weeks in Hebron, West Bank

Now
68 °F

Sunny.


Feels Like: 68 °F
Forecast: 45 / 51 °F
Wind: 6 mph from Southeast

Location: Ben Gurion International Airport

Current Time: Mar 31, 2015 at 8:33:16 PM

Latest Report: Mar 31, 2015 at 7:50 PM


Visibility: 10 mi

Pressure: 29.86 "Hg

Humidity: 35%

Dew point: 39 °F

Location of HebronLocation

Historic Weather in Hebron — Graph

°F

Hebron temperature yesterday

Maximum temperature yesterday: 72 °F (at 11:20 AM)
Minimum temperature yesterday: 55 °F (at 5:50 AM)
Average temperature yesterday: 63 °F

Past Weeks' High & Low Weather Summary

 TemperatureHumidityPressure
High90 °F (Mar 27, 1:20 PM)88% (Mar 17, 5:50 AM)30.18 "Hg (Mar 17, 5:50 AM)
Low48 °F (Mar 23, 5:50 AM)17% (Mar 27, 1:20 PM)29.62 "Hg (Mar 28, 4:50 AM)
Average64 °F59%29.99 "Hg
* Reported Mar 16 6:20 PM — Mar 31 7:20 PM, Hebron, Weather by CustomWeather, © 2015

Note: Actual official high and low records may vary slightly from our data, if they occured in-between our weather recording intervals... More about our weather records

Advertising

Hebron weather history for previous 24 hours

 ConditionsComfort  
Time TempWeatherWind HumidityBarometerVisibility
7:20 PM
Tue, Mar 31
68 °FSunny.8 mph35%29.86 "Hg10 mi
6:50 PM70 °FSunny.1 mph33%29.86 "Hg10 mi
6:20 PM70 °FSunny.1 mph33%29.86 "Hg10 mi
5:50 PM70 °FPassing clouds.6 mph33%29.89 "HgN/A
5:20 PM70 °FPassing clouds.10 mph33%29.89 "HgN/A
4:50 PM72 °FPassing clouds.10 mph33%29.89 "HgN/A
4:20 PM72 °FPassing clouds.12 mph31%29.92 "HgN/A
3:50 PM72 °FPassing clouds.14 mph33%29.92 "HgN/A
3:20 PM70 °FPassing clouds.14 mph38%29.92 "HgN/A
2:50 PM70 °FPassing clouds.14 mph46%29.95 "HgN/A
2:20 PM70 °FScattered clouds.15 mph53%29.95 "HgN/A
1:50 PM72 °FScattered clouds.13 mph50%29.95 "HgN/A
1:20 PM72 °FScattered clouds.10 mph47%29.98 "HgN/A
12:50 PM72 °FScattered clouds.8 mph47%29.98 "HgN/A
12:20 PM72 °FScattered clouds.7 mph47%30.01 "HgN/A
11:50 AM68 °FScattered clouds.9 mph56%30.01 "HgN/A
11:20 AM70 °FScattered clouds.8 mph53%30.01 "HgN/A
10:50 AM68 °FScattered clouds.8 mph53%30.04 "HgN/A
10:20 AM66 °FScattered clouds.8 mph60%30.04 "HgN/A
9:50 AM64 °FScattered clouds.12 mph64%30.04 "HgN/A
9:20 AM64 °FPassing clouds.12 mph68%30.04 "HgN/A
8:50 AM63 °FPassing clouds.9 mph73%30.04 "HgN/A
8:20 AM61 °FPassing clouds.8 mph72%30.01 "HgN/A
7:50 AM59 °FPassing clouds.8 mph77%30.01 "HgN/A
7:20 AM57 °FPassing clouds.7 mph82%30.01 "HgN/A
6:50 AM57 °FPassing clouds.6 mph82%30.01 "HgN/A
6:20 AM57 °FPassing clouds.5 mph82%30.01 "HgN/A
5:50 AM57 °FPassing clouds.5 mph82%30.01 "HgN/A
5:20 AM57 °FPassing clouds.7 mph82%30.01 "HgN/A
4:50 AM57 °FPassing clouds.5 mph82%30.01 "HgN/A
4:20 AM57 °FPassing clouds.7 mph82%30.01 "HgN/A
3:50 AM57 °FPassing clouds.6 mph77%30.01 "HgN/A
3:20 AM57 °FPassing clouds.5 mph82%30.01 "HgN/A
2:20 AM57 °FClear.6 mph82%30.01 "Hg10 mi
1:50 AM57 °FClear.5 mph82%30.01 "Hg10 mi
1:20 AM59 °FClear.5 mph77%30.01 "Hg10 mi
12:50 AM59 °FPassing clouds.5 mph77%30.01 "HgN/A
12:20 AM59 °FPassing clouds.6 mph77%30.01 "HgN/A
11:50 PM
Mon, Mar 30
59 °FPassing clouds.6 mph77%30.01 "HgN/A
11:20 PM59 °FPassing clouds.5 mph77%30.04 "HgN/A
10:50 PM59 °FPassing clouds.3 mph77%30.01 "HgN/A
10:20 PM59 °FClear.3 mph77%30.01 "Hg10 mi
9:50 PM61 °FClear.2 mph72%30.01 "Hg10 mi
9:20 PM61 °FPassing clouds.2 mph72%30.01 "HgN/A
8:50 PM61 °FPassing clouds.3 mph72%30.01 "HgN/A
8:20 PM61 °FPassing clouds.7 mph72%30.01 "HgN/A
Weather by CustomWeather, © 2015

See weather overviewHow to use our weather pages